Location: Briis
(48.6240°N, 2.1211°E)
Time: 07:40:03
(UTC+00:00)

CZ-2C R/B - Pass Details

Date: 25 September 2020
Orbit: 669 x 783 km, 98.2° (Epoch: 21 October)

Event Time Altitude Azimuth Distance (km) Brightness Sun altitude
Rises 04:15:48 0° 12° (NNE) 3,252 6.1 -15.0°
Reaches altitude 10° 04:18:07 10° 10° (N) 2,332 5.3 -14.7°
Maximum altitude 04:23:15 71° 288° (WNW) 830 2.5 -13.8°
Drops below altitude 10° 04:28:24 10° 205° (SSW) 2,336 4.6 -13.0°
Enters shadow 04:30:35 - 203° (SSW) 3,208 5.4 -12.7°
